Andover, VA

12:19 AM EST on February 07, 2016 (GMT -0500)
Lonesome Pine

Weather History for KLNP - November, 2011

Change the Weather History Date:

Thursday, November 3, 2011

  Actual Average Record
Temperature  
Mean Temperature 55 °F -  
Max Temperature 64 °F 56 °F 78 °F (2003)
Min Temperature 46 °F 38 °F 19 °F (1996)
Degree Days  
Heating Degree Days 10    
Growing Degree Days 5 (Base 50)    
Moisture  
Dew Point 32 °F    
Average Humidity 49    
Maximum Humidity 93    
Minimum Humidity 22    
Precipitation  
Precipitation 0.00 in - - ()
Sea Level Pressure  
Sea Level Pressure 30.06 in    
Wind  
Wind Speed 7 mph (South)    
Max Wind Speed 16 mph    
Max Gust Speed 21 mph    
Visibility 9 miles    
Events      
Averages and records for this station are not official NWS values.
T = Trace of Precipitation, MM = Missing Value Source: NWS Daily Summary

Daily Weather History Graph

Daily Weather History Graph

Search for Another Location

Airport or City:

Trip Planner

Search our weather history database for the weather conditions in past years. The results will help you decide how hot, cold, wet, or windy it might be!

Date:

Astronomy

Nov. 03, 2011 Rise Set
Actual Time 7:55 AM EDT 6:30 PM EDT
Civil Twilight 7:28 AM EDT 6:57 PM EDT
Nautical Twilight 6:58 AM EDT 7:28 PM EDT
Astronomical Twilight 6:27 AM EDT 7:58 PM EDT
Moon 2:45 PM EDT (11/3) 1:16 AM EDT (11/3)
Length of Visible Light 11h 28m
Length of Day
10h 34m
First Quarter, 60% of the Moon is Illuminated
Nov 3
First Quarter
Nov 10
Full
Nov 18
Last Quarter
Nov 25
New
Dec 2
First Quarter

Hourly Weather History & Observations

Time (EDT) Temp. Windchill Dew Point Humidity Pressure Visibility Wind Dir Wind Speed Gust Speed Precip Events Conditions
12:15 AM 53.6 °F - 32.0 °F 44% 30.21 in 10.0 mi South 10.4 mph - N/A   Unknown
12:35 AM 53.6 °F - 32.0 °F 44% 30.21 in 10.0 mi South 6.9 mph - N/A   Unknown
12:55 AM 51.8 °F - 32.0 °F 47% 30.20 in 10.0 mi South 10.4 mph - N/A   Unknown
1:15 AM 51.8 °F - 32.0 °F 47% 30.20 in 10.0 mi South 9.2 mph - N/A   Unknown
1:35 AM 51.8 °F - 32.0 °F 47% 30.19 in 10.0 mi SSE 10.4 mph - N/A   Unknown
2:15 AM 51.8 °F - 30.2 °F 44% 30.17 in 10.0 mi South 9.2 mph - N/A   Unknown
2:35 AM 51.8 °F - 30.2 °F 44% 30.17 in 10.0 mi South 9.2 mph - N/A   Unknown
2:55 AM 51.8 °F - 30.2 °F 44% 30.17 in 10.0 mi South 6.9 mph - N/A   Unknown
3:15 AM 51.8 °F - 30.2 °F 44% 30.17 in 10.0 mi South 9.2 mph - N/A   Unknown
3:35 AM 51.8 °F - 30.2 °F 44% 30.16 in 10.0 mi South 5.8 mph - N/A   Unknown
3:55 AM 50.0 °F - 28.4 °F 43% 30.16 in 10.0 mi SSE 8.1 mph - N/A   Unknown
4:15 AM 51.8 °F - 26.6 °F 38% 30.14 in 10.0 mi SSE 8.1 mph - N/A   Unknown
4:35 AM 50.0 °F - 26.6 °F 40% 30.14 in 10.0 mi SSE 6.9 mph - N/A   Unknown
4:55 AM 48.2 °F - 26.6 °F 43% 30.14 in 10.0 mi SSE 8.1 mph - N/A   Unknown
5:15 AM 48.2 °F - 24.8 °F 40% 30.14 in 10.0 mi SW 3.5 mph - N/A   Unknown
5:55 AM 48.2 °F - 26.6 °F 43% 30.13 in 10.0 mi SSE 4.6 mph - N/A   Unknown
6:35 AM 46.4 °F 45.2 °F 28.4 °F 50% 30.13 in 10.0 mi SW 3.5 mph - N/A   Unknown
6:55 AM 46.4 °F - 26.6 °F 46% 30.12 in 10.0 mi Calm Calm - N/A   Unknown
7:15 AM 48.2 °F - 26.6 °F 43% 30.11 in 10.0 mi SSE 8.1 mph - N/A   Unknown
7:35 AM 48.2 °F - 24.8 °F 40% 30.11 in 10.0 mi SSE 8.1 mph - N/A   Unknown
7:55 AM 48.2 °F - 23.0 °F 37% 30.10 in 10.0 mi SSE 8.1 mph - N/A   Unknown
8:15 AM 48.2 °F - 24.8 °F 40% 30.09 in 10.0 mi SSE 6.9 mph - N/A   Unknown
8:35 AM 50.0 °F - 23.0 °F 35% 30.09 in 10.0 mi SSE 9.2 mph - N/A   Unknown
8:55 AM 50.0 °F - 26.6 °F 40% 30.10 in 10.0 mi SW 4.6 mph - N/A   Unknown
9:15 AM 48.2 °F - 28.4 °F 46% 30.11 in 10.0 mi Calm Calm - N/A   Unknown
9:35 AM 51.8 °F - 26.6 °F 38% 30.10 in 10.0 mi Calm Calm - N/A   Unknown
9:55 AM 53.6 °F - 21.2 °F 28% 30.09 in 10.0 mi SE 4.6 mph - N/A   Unknown
10:15 AM 55.4 °F - 24.8 °F 31% 30.09 in 10.0 mi SE 4.6 mph - N/A   Unknown
10:35 AM 55.4 °F - 23.0 °F 29% 30.08 in 10.0 mi ESE 3.5 mph - N/A   Unknown
10:55 AM 55.4 °F - 24.8 °F 31% 30.06 in 10.0 mi East 4.6 mph - N/A   Unknown
11:15 AM 59.0 °F - 24.8 °F 27% 30.06 in 10.0 mi Calm Calm - N/A   Unknown
11:35 AM 60.8 °F - 24.8 °F 25% 30.06 in 10.0 mi WSW 4.6 mph - N/A   Unknown
11:55 AM 60.8 °F - 26.6 °F 27% 30.05 in 10.0 mi West 6.9 mph - N/A   Unknown
12:15 PM 62.6 °F - 24.8 °F 24% 30.04 in 10.0 mi WSW 10.4 mph - N/A   Unknown
12:35 PM 62.6 °F - 26.6 °F 26% 30.04 in 10.0 mi WSW 11.5 mph - N/A   Unknown
12:55 PM 62.6 °F - 28.4 °F 27% 30.03 in 10.0 mi WSW 16.1 mph 20.7 mph N/A   Unknown
1:15 PM 62.6 °F - 30.2 °F 30% 30.01 in 10.0 mi SW 12.7 mph 19.6 mph N/A   Unknown
2:15 PM 64.4 °F - 26.6 °F 24% 29.95 in 10.0 mi South 8.1 mph - N/A   Unknown
2:35 PM 64.4 °F - 24.8 °F 22% 29.95 in 10.0 mi South 9.2 mph 16.1 mph N/A   Unknown
3:15 PM 60.8 °F - 26.6 °F 27% 29.93 in 10.0 mi SSW 8.1 mph - N/A   Unknown
3:35 PM 60.8 °F - 30.2 °F 31% 29.91 in 10.0 mi SW 5.8 mph - N/A   Unknown
3:55 PM 59.0 °F - 30.2 °F 34% 29.95 in 10.0 mi SW 6.9 mph - N/A   Unknown
4:15 PM 55.4 °F - 41.0 °F 58% 29.96 in 3.0 mi WSW 10.4 mph - N/A   Unknown
4:35 PM 51.8 °F - 44.6 °F 76% 29.94 in 2.5 mi SW 3.5 mph - N/A   Unknown
4:55 PM 50.0 °F - 44.6 °F 82% 29.94 in 4.0 mi Calm Calm - N/A   Unknown
5:15 PM 50.0 °F - 46.4 °F 87% 29.94 in 2.5 mi Calm Calm - N/A   Unknown
5:35 PM 50.0 °F - 46.4 °F 87% 29.93 in 4.0 mi Calm Calm - N/A   Unknown
5:55 PM 48.2 °F - 46.4 °F 93% 29.92 in 5.0 mi Calm Calm - N/A   Unknown
6:15 PM 48.2 °F - 46.4 °F 93% 29.94 in 4.0 mi SW 4.6 mph - N/A   Unknown
6:35 PM 48.2 °F - 46.4 °F 93% 29.92 in 7.0 mi Calm Calm - N/A   Unknown
6:55 PM 48.2 °F - 46.4 °F 93% 29.92 in 5.0 mi Calm Calm - N/A   Unknown
7:15 PM 48.2 °F - 46.4 °F 93% 29.92 in 4.0 mi Calm Calm - N/A   Unknown
7:35 PM 48.2 °F - 46.4 °F 93% 29.94 in 7.0 mi Calm Calm - N/A   Unknown
7:55 PM 48.2 °F - 44.6 °F 87% 29.94 in 5.0 mi Calm Calm - N/A   Unknown
8:15 PM 48.2 °F - 46.4 °F 93% 29.94 in 4.0 mi NE 3.5 mph - N/A   Unknown
8:35 PM 48.2 °F - 46.4 °F 93% 29.92 in 2.0 mi ENE 6.9 mph - N/A   Unknown
8:55 PM 46.4 °F 45.2 °F 46.4 °F 100% 29.91 in 1.2 mi East 3.5 mph - N/A   Unknown
9:15 PM 46.4 °F - 46.4 °F 100% 29.92 in 10.0 mi Calm Calm - N/A   Unknown
9:35 PM 48.2 °F - 46.4 °F 93% 29.91 in 5.0 mi East 3.5 mph - N/A   Unknown
9:55 PM 48.2 °F - 46.4 °F 93% 29.92 in 10.0 mi East 4.6 mph - N/A   Unknown
10:15 PM 48.2 °F - 46.4 °F 93% 29.89 in 7.0 mi East 5.8 mph - N/A   Unknown
10:35 PM 48.2 °F - 46.4 °F 93% 29.89 in 10.0 mi ENE 3.5 mph - N/A   Unknown
10:55 PM 48.2 °F - 46.4 °F 93% 29.89 in 10.0 mi East 3.5 mph - N/A   Unknown
11:15 PM 48.2 °F - 46.4 °F 93% 29.88 in 10.0 mi ENE 3.5 mph - N/A   Unknown
11:35 PM 48.2 °F - 46.4 °F 93% 29.88 in 10.0 mi Calm Calm - N/A   Unknown
11:55 PM 48.2 °F - 46.4 °F 93% 29.88 in 10.0 mi Calm Calm - N/A   Unknown